CW2057 Weather Reports


Display with metric or nautical units.
time (UTC)temp
F
wind
direction
speed
MPH
gust
MPH
rain 1hr
in
rain 24hr
in
rain mn
in
humidity
%
barometer
mb
20260506105632 65 304 5.0 13.0 0.00 0.00 0.00 72 1010.3
20260506105120 65 274 4.0 13.0 0.00 0.00 0.00 72 1010.2
20260506104629 65 234 3.0 16.0 0.00 0.00 0.00 72 1010.1
20260506104139 65 239 5.0 16.0 0.00 0.00 0.00 72 1010.1
20260506103627 65 228 2.0 11.0 0.00 0.00 0.00 72 1010.0
20260506103115 65 307 2.0 9.0 0.00 0.00 0.00 72 1009.9
20260506102620 65 222 3.0 12.0 0.00 0.00 0.00 72 1010.0
20260506102129 65 165 6.0 12.0 0.00 0.00 0.00 72 1010.0
20260506101617 65 241 3.0 12.0 0.00 0.00 0.00 72 1010.0
20260506101126 65 182 2.0 12.0 0.00 0.00 0.00 72 1009.9
20260506100616 65 322 3.0 12.0 0.00 0.00 0.00 72 1009.9
20260506100126 65 316 5.0 12.0 0.00 0.00 0.00 72 1009.9
20260506095615 65 239 2.0 9.0 0.00 0.00 0.00 72 1010.0
20260506095123 65 262 5.0 11.0 0.00 0.00 0.00 71 1010.1
20260506094632 65 145 4.0 11.0 0.00 0.00 0.00 71 1010.0
20260506094120 65 13 2.0 18.0 0.00 0.00 0.00 71 1010.1
20260506093626 65 255 5.0 18.0 0.00 0.00 0.00 71 1010.0
20260506093116 65 257 4.0 11.0 0.00 0.00 0.00 71 1010.0
20260506092625 65 187 4.0 11.0 0.00 0.00 0.00 70 1010.1
20260506092133 65 216 3.0 16.0 0.00 0.00 0.00 70 1010.0
20260506091643 65 241 6.0 16.0 0.00 0.00 0.00 70 1010.1
20260506091129 65 200 5.0 11.0 0.00 0.00 0.00 69 1010.0
20260506090619 66 199 4.0 15.0 0.00 0.00 0.00 69 1009.9
20260506090128 66 165 7.0 15.0 0.00 0.00 0.00 68 1010.1
20260506085616 66 165 4.0 17.0 0.00 0.00 0.00 68 1010.0
20260506085125 66 165 4.0 17.0 0.00 0.00 0.00 67 1010.2
20260506084629 66 165 2.0 11.0 0.00 0.00 0.00 67 1010.2
20260506084117 67 165 2.0 11.0 0.00 0.00 0.00 66 1010.3
20260506083627 67 165 3.0 14.0 0.00 0.00 0.00 66 1010.3
20260506083115 67 165 4.0 14.0 0.00 0.00 0.00 66 1010.3
20260506082625 67 165 4.0 11.0 0.00 0.00 0.00 66 1010.3
20260506082133 67 165 2.0 9.0 0.00 0.00 0.00 65 1010.4
20260506081621 67 165 1.0 11.0 0.00 0.00 0.00 65 1010.2
20260506081131 67 165 5.0 13.0 0.00 0.00 0.00 65 1010.2
20260506080621 67 165 4.0 13.0 0.00 0.00 0.00 65 1010.1
20260506080130 67 165 5.0 14.0 0.00 0.00 0.00 64 1010.0
20260506073123 68 165 2.0 14.0 0.00 0.00 0.00 63 1010.2
20260506072629 68 165 2.0 14.0 0.00 0.00 0.00 62 1010.2
20260506072118 68 165 3.0 14.0 0.00 0.00 0.00 62 1010.3
20260506071128 68 165 3.0 12.0 0.00 0.00 0.00 61 1010.4
20260506070616 68 165 4.0 12.0 0.00 0.00 0.00 61 1010.4
20260506070124 68 165 4.0 12.0 0.00 0.00 0.00 61 1010.4
20260506062127 70 165 4.0 14.0 0.00 0.00 0.00 57 1010.7
20260506061616 70 288 2.0 14.0 0.00 0.00 0.00 57 1010.7
20260506061125 70 165 4.0 14.0 0.00 0.00 0.00 56 1010.7
20260506060635 70 160 1.0 12.0 0.00 0.00 0.00 56 1010.7
20260506060123 70 204 5.0 12.0 0.00 0.00 0.00 56 1010.7
20260506051126 71 229 4.0 14.0 0.00 0.00 0.00 53 1010.9
20260506050616 71 253 4.0 13.0 0.00 0.00 0.00 53 1011.0
20260506050125 71 242 3.0 12.0 0.00 0.00 0.00 53 1011.1
20260506045123 72 222 4.0 13.0 0.00 0.00 0.00 52 1011.1
20260506044633 72 272 4.0 13.0 0.00 0.00 0.00 52 1011.1
20260506044121 72 149 5.0 13.0 0.00 0.00 0.00 52 1011.1
20260506043629 72 245 3.0 15.0 0.00 0.00 0.00 52 1011.1
20260506043138 72 79 8.0 15.0 0.00 0.00 0.00 52 1011.2
20260506042645 72 201 5.0 17.0 0.00 0.00 0.00 52 1011.1
20260506042152 72 226 5.0 17.0 0.00 0.00 0.00 51 1011.1
20260506041620 72 76 5.0 22.0 0.00 0.00 0.00 51 1011.1
20260506041125 72 236 7.0 22.0 0.00 0.00 0.00 51 1011.0
20260506040615 72 180 7.0 13.0 0.00 0.00 0.00 51 1011.1
20260506040123 72 138 2.0 10.0 0.00 0.00 0.00 51 1011.2
20260506035626 72 204 3.0 10.0 0.00 0.00 0.00 50 1011.1
20260506035115 72 223 5.0 10.0 0.00 0.00 0.00 50 1011.1
20260506034624 72 251 4.0 20.0 0.00 0.00 0.00 50 1011.1
20260506034132 72 184 4.0 20.0 0.00 0.00 0.00 49 1011.0
20260506033620 72 253 4.0 16.0 0.00 0.00 0.00 49 1011.1
20260506033149 72 16 3.0 12.0 0.00 0.00 0.00 48 1011.0
20260506032617 72 174 5.0 14.0 0.00 0.00 0.00 47 1011.1
20260506032125 72 297 5.0 14.0 0.00 0.00 0.00 47 1011.1
20260506031614 72 223 2.0 15.0 0.00 0.00 0.00 46 1011.2
20260506031143 72 291 5.0 18.0 0.00 0.00 0.00 46 1011.1
20260506030632 72 191 8.0 18.0 0.00 0.00 0.00 45 1011.1
20260506030120 72 214 4.0 13.0 0.00 0.00 0.00 45 1011.0
20260506025628 72 248 2.0 13.0 0.00 0.00 0.00 45 1010.9
20260506025116 73 149 3.0 13.0 0.00 0.00 0.00 44 1011.0
20260506024625 73 43 2.0 14.0 0.00 0.00 0.00 44 1011.0
20260506024128 73 241 3.0 14.0 0.00 0.00 0.00 44 1011.1
20260506023638 73 207 5.0 13.0 0.00 0.00 0.00 44 1011.0
20260506023125 73 224 3.0 10.0 0.00 0.00 0.00 43 1011.0
20260506022614 73 260 2.0 10.0 0.00 0.00 0.00 43 1011.1
20260506022123 73 151 1.0 11.0 0.00 0.00 0.00 42 1011.2
20260506021632 73 241 3.0 11.0 0.00 0.00 0.00 42 1011.1
20260506021120 73 107 2.0 9.0 0.00 0.00 0.00 42 1011.1
20260506020628 74 257 3.0 14.0 0.00 0.00 0.00 41 1011.1
20260506020118 74 220 3.0 14.0 0.00 0.00 0.00 40 1011.1
20260506015648 73 220 4.0 9.0 0.00 0.00 0.00 40 1011.0
20260506015114 74 210 2.0 10.0 0.00 0.00 0.00 40 1011.0
20260506014623 74 251 2.0 13.0 0.00 0.00 0.00 39 1011.0
20260506014132 74 2 3.0 13.0 0.00 0.00 0.00 39 1011.0
20260506013619 74 213 3.0 12.0 0.00 0.00 0.00 38 1011.0
20260506013128 74 252 2.0 11.0 0.00 0.00 0.00 38 1010.9
20260506012617 74 293 3.0 11.0 0.00 0.00 0.00 38 1010.8
20260506012126 74 226 4.0 11.0 0.00 0.00 0.00 38 1010.7
20260506011615 74 130 3.0 9.0 0.00 0.00 0.00 38 1010.7
20260506011123 74 247 2.0 4.0 0.00 0.00 0.00 37 1010.7
20260506010629 74 165 1.0 6.0 0.00 0.00 0.00 37 1010.6
20260506010117 74 264 2.0 7.0 0.00 0.00 0.00 36 1010.6
20260506005626 75 232 2.0 9.0 0.00 0.00 0.00 36 1010.5
20260506005115 75 165 2.0 9.0 0.00 0.00 0.00 35 1010.4
20260506004624 75 265 3.0 9.0 0.00 0.00 0.00 35 1010.4
20260506004132 75 241 1.0 9.0 0.00 0.00 0.00 35 1010.3
20260506003622 75 259 2.0 9.0 0.00 0.00 0.00 34 1010.2
20260506003151 76 280 3.0 7.0 0.00 0.00 0.00 34 1010.3
20260506002618 76 298 1.0 4.0 0.00 0.00 0.00 34 1010.1
20260506002126 76 52 0.0 10.0 0.00 0.00 0.00 33 1010.2
20260506001616 77 261 3.0 11.0 0.00 0.00 0.00 32 1010.1
20260506001125 77 228 3.0 11.0 0.00 0.00 0.00 32 1009.9
20260506000614 77 135 2.0 13.0 0.00 0.00 0.00 32 1010.0
20260506000122 77 292 2.0 13.0 0.00 0.00 0.00 31 1010.0
20260505235650 78 356 3.0 12.0 0.00 0.00 0.00 30 1010.0
20260505235118 78 292 5.0 12.0 0.00 0.00 0.00 30 1010.1
20260505234626 78 278 3.0 15.0 0.00 0.00 0.00 29 1010.0
20260505234114 78 313 3.0 15.0 0.00 0.00 0.00 29 1009.9
20260505233623 78 209 4.0 12.0 0.00 0.00 0.00 29 1009.8
20260505233127 78 203 5.0 13.0 0.00 0.00 0.00 30 1009.9
20260505232617 78 224 3.0 8.0 0.00 0.00 0.00 30 1009.9
20260505232125 79 301 1.0 7.0 0.00 0.00 0.00 31 1009.9
20260505231614 79 191 2.0 11.0 0.00 0.00 0.00 29 1009.8
20260505231123 79 263 3.0 11.0 0.00 0.00 0.00 29 1009.8
20260505230631 79 222 1.0 12.0 0.00 0.00 0.00 30 1009.8
20260505230140 79 282 3.0 12.0 0.00 0.00 0.00 29 1009.8
20260505225628 79 268 2.0 16.0 0.00 0.00 0.00 30 1009.9
20260505225117 80 334 4.0 16.0 0.00 0.00 0.00 29 1009.8
20260505224627 80 261 2.0 11.0 0.00 0.00 0.00 29 1009.9
20260505224115 80 311 2.0 10.0 0.00 0.00 0.00 29 1009.9
20260505223625 80 57 3.0 13.0 0.00 0.00 0.00 29 1009.9
20260505223134 80 305 5.0 15.0 0.00 0.00 0.00 29 1009.9
20260505222623 81 299 6.0 16.0 0.00 0.00 0.00 28 1010.0
20260505222152 80 291 4.0 14.0 0.00 0.00 0.00 29 1010.1
20260505221619 80 263 5.0 14.0 0.00 0.00 0.00 28 1010.0
20260505221128 80 296 4.0 14.0 0.00 0.00 0.00 28 1009.9
20260505220618 80 206 9.0 17.0 0.00 0.00 0.00 28 1009.9
20260505220143 80 320 4.0 17.0 0.00 0.00 0.00 29 1009.9
20260505215631 81 179 5.0 15.0 0.00 0.00 0.00 29 1009.8
20260505215119 81 240 3.0 14.0 0.00 0.00 0.00 30 1009.9
20260505214629 81 300 6.0 14.0 0.00 0.00 0.00 29 1009.8
20260505214118 81 270 4.0 17.0 0.00 0.00 0.00 30 1009.9
20260505213627 81 144 6.0 17.0 0.00 0.00 0.00 29 1009.9
20260505213136 81 310 5.0 15.0 0.00 0.00 0.00 29 1009.9
20260505212623 82 228 4.0 17.0 0.00 0.00 0.00 29 1009.8
20260505212131 82 265 7.0 17.0 0.00 0.00 0.00 29 1009.7
20260505211620 82 309 5.0 15.0 0.00 0.00 0.00 30 1009.6
20260505211149 83 44 6.0 15.0 0.00 0.00 0.00 29 1009.6
20260505210638 83 306 3.0 14.0 0.00 0.00 0.00 30 1009.7
20260505210146 83 294 6.0 16.0 0.00 0.00 0.00 29 1009.7
20260505205648 83 257 4.0 16.0 0.00 0.00 0.00 30 1009.7
20260505205135 83 224 6.0 18.0 0.00 0.00 0.00 30 1009.6
20260505204623 83 245 8.0 18.0 0.00 0.00 0.00 30 1009.8
20260505204132 83 270 5.0 18.0 0.00 0.00 0.00 30 1009.6
20260505203620 83 241 7.0 17.0 0.00 0.00 0.00 31 1009.6
20260505203129 84 201 4.0 14.0 0.00 0.00 0.00 33 1009.7
20260505202616 83 249 6.0 14.0 0.00 0.00 0.00 30 1009.7
20260505202125 83 216 3.0 23.0 0.00 0.00 0.00 32 1009.6
20260505201615 83 151 5.0 23.0 0.00 0.00 0.00 32 1009.6
20260505201123 83 227 5.0 19.0 0.00 0.00 0.00 32 1009.7
20260505200632 83 224 4.0 23.0 0.00 0.00 0.00 31 1009.8
20260505200121 82 200 7.0 23.0 0.00 0.00 0.00 32 1009.8
20260505195630 82 247 8.0 18.0 0.00 0.00 0.00 32 1010.0
20260505195140 83 165 5.0 15.0 0.00 0.00 0.00 32 1009.9
20260505194647 83 232 4.0 18.0 0.00 0.00 0.00 32 1009.9
20260505194115 83 267 4.0 18.0 0.00 0.00 0.00 33 1009.9
20260505193620 83 338 5.0 19.0 0.00 0.00 0.00 32 1010.0
20260505193127 83 183 7.0 23.0 0.00 0.00 0.00 33 1010.1
20260505192617 83 20 5.0 24.0 0.00 0.00 0.00 30 1010.2
20260505192145 83 170 10.0 24.0 0.00 0.00 0.00 32 1010.2
20260505191633 83 216 8.0 23.0 0.00 0.00 0.00 33 1010.3
20260505191121 84 225 13.0 23.0 0.00 0.00 0.00 32 1010.2
20260505190631 84 126 5.0 19.0 0.00 0.00 0.00 33 1010.4
20260505190119 84 120 6.0 19.0 0.00 0.00 0.00 33 1010.3
20260505185627 84 233 4.0 11.0 0.00 0.00 0.00 34 1010.5
20260505185117 84 270 3.0 11.0 0.00 0.00 0.00 32 1010.6
20260505184625 84 334 4.0 20.0 0.00 0.00 0.00 33 1010.6
20260505184154 83 313 4.0 20.0 0.00 0.00 0.00 35 1010.5
20260505183621 83 224 8.0 17.0 0.00 0.00 0.00 36 1010.7
20260505183130 83 255 5.0 17.0 0.00 0.00 0.00 35 1010.7
20260505182639 83 249 4.0 17.0 0.00 0.00 0.00 36 1011.0
20260505182126 83 214 5.0 14.0 0.00 0.00 0.00 35 1011.0
20260505181616 83 57 5.0 14.0 0.00 0.00 0.00 35 1010.9
20260505181121 83 222 5.0 12.0 0.00 0.00 0.00 35 1011.1
20260505180630 83 181 4.0 13.0 0.00 0.00 0.00 36 1011.2
20260505180118 83 182 4.0 13.0 0.00 0.00 0.00 35 1011.1
20260505175627 83 220 4.0 14.0 0.00 0.00 0.00 36 1011.2
20260505175115 83 301 5.0 14.0 0.00 0.00 0.00 35 1011.2
20260505174623 83 305 5.0 14.0 0.00 0.00 0.00 35 1011.3
20260505174132 83 174 4.0 16.0 0.00 0.00 0.00 35 1011.3
20260505173641 83 294 8.0 17.0 0.00 0.00 0.00 33 1011.3
20260505173128 82 216 6.0 17.0 0.00 0.00 0.00 33 1011.4
20260505172637 82 234 3.0 12.0 0.00 0.00 0.00 37 1011.5
20260505172124 82 176 4.0 14.0 0.00 0.00 0.00 34 1011.5
20260505171613 82 55 5.0 15.0 0.00 0.00 0.00 35 1011.5
20260505171122 83 235 5.0 15.0 0.00 0.00 0.00 34 1011.7
20260505170631 82 251 6.0 14.0 0.00 0.00 0.00 35 1011.6
20260505170140 82 311 2.0 20.0 0.00 0.00 0.00 37 1011.6
20260505165644 82 250 8.0 20.0 0.00 0.00 0.00 38 1011.7
20260505165130 82 291 4.0 13.0 0.00 0.00 0.00 38 1011.7
20260505164620 82 143 4.0 15.0 0.00 0.00 0.00 39 1011.8
20260505164129 81 338 6.0 15.0 0.00 0.00 0.00 37 1011.9
20260505163619 81 280 5.0 14.0 0.00 0.00 0.00 39 1012.1
20260505163128 82 220 4.0 10.0 0.00 0.00 0.00 39 1012.1
20260505162616 81 278 3.0 10.0 0.00 0.00 0.00 40 1012.1
20260505162125 82 26 3.0 10.0 0.00 0.00 0.00 41 1012.2
20260505161654 82 18 1.0 8.0 0.00 0.00 0.00 42 1012.3
20260505161122 82 317 1.0 18.0 0.00 0.00 0.00 38 1012.3
20260505160630 81 297 7.0 18.0 0.00 0.00 0.00 36 1012.3
20260505160119 80 284 4.0 13.0 0.00 0.00 0.00 38 1012.3
20260505153129 80 313 3.0 14.0 0.00 0.00 0.00 42 1012.4
20260505152617 79 261 3.0 13.0 0.00 0.00 0.00 41 1012.4
20260505152122 80 165 2.0 10.0 0.00 0.00 0.00 42 1012.4
20260505151652 79 224 4.0 11.0 0.00 0.00 0.00 44 1012.4
20260505151119 78 261 2.0 11.0 0.00 0.00 0.00 41 1012.3
20260505150629 79 322 2.0 11.0 0.00 0.00 0.00 43 1012.4
20260505150138 78 286 4.0 10.0 0.00 0.00 0.00 42 1012.4
20260505140630 75 214 2.0 9.0 0.00 0.00 0.00 45 1012.6
20260505140119 76 278 3.0 9.0 0.00 0.00 0.00 46 1012.6
20260505130117 71 274 1.0 10.0 0.00 0.00 0.00 48 1013.1
20260505124640 69 278 3.0 6.0 0.00 0.00 0.00 50 1013.1
20260505124121 68 165 1.0 6.0 0.00 0.00 0.00 52 1013.0
20260505123630 68 165 1.0 6.0 0.00 0.00 0.00 52 1012.9
20260505123118 67 165 1.0 6.0 0.00 0.00 0.00 54 1012.8
20260505122627 66 165 0.0 9.0 0.00 0.00 0.00 55 1012.7
20260505122116 65 165 4.0 9.0 0.00 0.00 0.00 56 1012.8
20260505121624 64 165 2.0 8.0 0.00 0.00 0.00 58 1012.9
20260505121113 63 165 1.0 4.0 0.00 0.00 0.00 60 1012.8
20260505120642 63 165 1.0 4.0 0.00 0.00 0.00 60 1012.8
20260505120129 62 165 1.0 4.0 0.00 0.00 0.00 60 1012.8
20260505115617 62 165 1.0 3.0 0.00 0.00 0.00 61 1012.9
20260505115126 62 193 1.0 3.0 0.00 0.00 0.00 61 1012.8
20260505114615 61 263 0.0 3.0 0.00 0.00 0.00 61 1012.7
20260505114123 61 289 1.0 3.0 0.00 0.00 0.00 62 1012.6
20260505113633 61 318 1.0 3.0 0.00 0.00 0.00 63 1012.6
20260505113120 60 262 1.0 5.0 0.00 0.00 0.00 63 1012.6
20260505112628 60 260 1.0 5.0 0.00 0.00 0.00 63 1012.6
20260505112118 60 243 1.0 3.0 0.00 0.00 0.00 64 1012.5
20260505111626 59 4 0.0 5.0 0.00 0.00 0.00 64 1012.5
20260505111115 59 276 1.0 5.0 0.00 0.00 0.00 64 1012.4
20260505110624 59 275 1.0 4.0 0.00 0.00 0.00 65 1012.4
20260505110129 59 275 1.0 3.0 0.00 0.00 0.00 65 1012.3